Theta_e
328 321 318 318 301 300 299 306 314 310 309 312 324 324 322 324 327 324 348 356 358 358 361 364 367 367 366 365 363 362 362 362 362 362 361 360 363 362 363 363 362 363 364 362 361 359 357 356 354
325 321 316 307 298 293 298 309 310 311 311 314 322 326 324 322 332 341 344 356 358 358 357 362 367 366 365 364 363 362 361 362 362 361 361 360 363 363 363 363 363 363 361 361 359 358 357 355 354
323 322 306 302 298 296 299 308 310 311 314 313 313 324 325 325 333 343 350 357 358 356 358 363 366 366 365 364 362 361 361 362 361 361 361 360 362 362 362 363 363 363 360 358 357 356 356 355 354
316 310 307 298 297 302 304 307 310 310 312 313 316 320 326 331 334 346 354 361 357 356 360 364 365 365 365 364 362 361 362 362 362 361 361 361 362 362 361 363 362 362 360 357 356 356 356 356 354
310 305 296 296 299 305 310 310 311 308 309 310 313 319 321 331 337 349 353 362 357 357 360 362 365 365 365 364 363 362 362 361 362 361 361 361 361 361 361 362 363 361 361 358 355 356 356 356 355
303 305 295 293 299 305 309 309 309 308 309 308 309 314 314 319 321 332 348 356 360 357 359 361 365 364 363 363 362 362 361 361 361 361 361 361 361 361 361 362 362 361 360 359 357 356 355 354 354
298 298 295 296 299 303 306 307 306 305 305 306 307 306 309 313 315 316 335 351 359 358 357 358 361 363 364 362 362 361 361 360 360 360 360 360 360 360 361 361 361 361 359 357 356 355 355 354 354
302 298 295 296 299 300 307 307 305 307 306 311 312 306 303 311 315 315 314 339 356 358 356 355 358 360 359 360 363 361 361 360 359 360 360 360 360 360 360 359 360 360 359 357 356 354 354 354 353
305 295 292 297 300 300 304 304 309 310 308 309 310 309 311 314 314 311 312 313 335 358 356 354 355 356 356 358 361 361 361 361 360 360 359 357 355 356 358 358 360 360 359 357 355 354 353 352 352
298 292 296 302 300 299 302 303 305 305 304 305 307 311 313 313 312 311 310 309 310 347 357 353 350 350 351 356 357 356 358 358 356 355 356 354 349 352 355 356 359 359 359 357 355 353 352 351 340
299 294 301 303 303 303 301 302 305 302 299 303 304 307 309 310 309 309 309 311 308 324 355 351 348 349 347 346 355 354 354 354 354 353 353 350 349 349 350 348 355 354 357 351 351 349 346 341 337
296 303 303 304 304 303 301 302 301 302 301 306 307 308 307 306 306 307 306 309 309 317 345 352 350 349 346 347 350 349 349 351 351 352 352 350 346 343 344 344 350 351 351 346 344 341 340 336 335
298 301 303 305 303 301 304 301 300 300 305 307 307 307 306 305 306 307 308 309 309 310 317 350 353 355 357 349 348 344 344 347 348 349 349 350 346 340 342 342 346 349 348 346 341 338 337 334 334
301 301 301 301 300 300 299 301 301 304 306 307 307 305 305 306 306 306 308 308 309 312 318 328 335 354 355 352 354 348 345 345 345 345 346 349 346 342 343 339 344 346 348 346 342 339 336 334 333
302 297 299 300 299 300 301 297 299 304 306 305 306 305 306 307 308 307 308 308 309 312 314 317 320 321 336 352 353 353 354 355 345 345 344 347 346 342 344 342 344 347 346 345 342 339 336 334 332
296 295 289 299 301 301 300 291 301 305 303 304 306 306 307 307 308 308 310 309 311 311 312 321 320 322 324 348 352 352 350 351 354 350 345 346 346 343 341 345 342 344 346 343 342 338 336 333 333
293 288 291 295 300 300 296 293 301 305 303 302 303 305 306 305 307 309 310 311 310 314 318 318 318 316 324 323 329 333 343 350 354 354 352 347 345 347 342 345 345 343 343 343 340 336 333 330 330
289 289 291 291 296 298 295 295 299 302 303 302 303 304 305 306 307 309 312 312 312 314 316 319 320 319 318 323 324 322 322 330 347 349 352 353 350 346 347 345 344 344 343 340 337 336 334 331 329
294 292 291 295 299 296 295 296 299 302 302 301 301 303 305 306 309 311 313 313 312 316 323 325 324 324 321 321 322 321 320 320 334 346 349 350 351 352 346 347 342 345 342 340 338 335 332 331 332
295 292 292 297 301 299 296 297 301 302 303 304 305 304 304 305 308 309 312 313 315 318 319 321 320 319 322 326 326 322 321 320 322 328 341 351 348 349 350 346 346 343 341 338 339 337 332 331 331
294 293 293 293 298 298 296 294 296 301 303 305 305 305 305 306 305 307 310 311 313 316 316 318 320 325 326 327 325 326 326 324 323 325 332 349 350 348 346 346 346 345 343 340 341 338 334 331 330
291 298 298 297 293 286 295 284 294 297 300 303 304 304 304 305 308 308 309 311 312 313 318 320 323 325 326 327 325 322 323 322 324 325 328 342 348 342 346 345 345 339 333 341 343 341 335 329 328
294 300 297 296 292 288 292 286 293 299 299 303 305 304 304 306 307 307 309 310 312 313 316 320 323 320 323 322 323 324 322 324 323 326 328 335 341 343 347 345 346 346 346 344 343 339 336 336 330
301 296 294 294 290 282 290 289 290 295 299 302 304 307 308 306 306 307 308 311 310 311 314 317 320 319 320 320 320 319 320 324 326 329 331 333 331 336 338 341 342 345 344 342 342 341 341 338 336
296 289 282 281 281 281 293 289 289 299 302 304 304 305 305 305 305 306 307 307 308 309 311 313 313 313 316 319 317 317 319 321 321 325 330 328 330 324 323 324 334 339 343 339 341 341 341 337 335
291 290 282 278 279 284 292 285 292 302 305 305 306 304 307 306 304 305 305 305 306 307 308 309 309 310 314 315 317 316 318 319 321 322 329 329 327 318 318 321 330 341 344 342 337 337 339 340 339
292 288 293 287 288 283 286 291 299 302 302 304 305 306 304 305 304 303 305 304 305 305 305 306 307 307 309 312 315 316 316 317 316 320 325 328 330 330 320 323 337 342 345 344 340 335 337 340 340
294 297 286 286 278 278 285 287 288 296 298 301 300 300 303 303 301 302 303 303 304 304 304 305 306 306 307 309 311 314 315 314 316 321 322 326 331 333 334 334 337 336 339 339 338 335 335 337 334
292 289 292 292 290 281 279 284 295 296 298 298 300 302 302 303 300 301 301 302 303 303 303 304 305 305 306 307 308 308 309 314 317 318 320 324 327 332 332 335 335 336 334 335 334 332 329 329 325
296 292 293 285 283 284 283 287 300 298 298 299 299 300 301 300 301 300 300 301 301 302 301 301 302 303 304 306 307 307 308 311 315 318 318 320 325 328 333 335 334 333 332 330 331 327 326 322 321
Wind_Speed
8 10 5 1 5 4 6 8 13 13 6 5 15 14 14 8 6 6 3 16 19 15 11 13 17 18 18 17 15 16 15 14 14 15 14 13 13 14 13 13 13 12 12 12 11 10 9 9 9
5 8 1 1 2 2 7 7 15 7 3 9 13 16 12 9 7 6 5 15 16 15 9 11 14 17 18 17 17 16 15 13 13 13 13 13 13 13 12 12 12 12 12 11 10 9 9 8 8
6 4 3 2 3 4 6 7 6 6 9 6 4 9 6 4 7 4 3 20 15 13 11 11 14 14 16 17 17 17 16 15 14 14 13 12 11 11 11 11 11 11 12 11 10 8 8 7 7
4 4 5 2 10 13 9 12 2 5 6 7 9 10 6 6 2 7 8 20 13 13 12 13 14 14 14 15 16 17 17 16 15 15 14 14 14 12 10 11 10 10 10 10 9 8 7 7 6
2 1 2 3 11 14 15 9 7 4 4 7 9 5 8 4 3 8 8 20 17 13 12 12 14 13 15 16 16 16 16 16 15 15 14 14 13 13 12 10 10 10 10 10 9 8 7 6 6
4 2 3 5 11 9 10 1 5 5 10 7 9 9 4 5 6 3 6 13 18 17 13 13 15 13 13 15 15 16 16 16 15 15 14 14 14 14 12 11 10 10 10 10 9 8 8 7 6
3 2 4 7 11 14 7 2 6 4 10 7 3 5 3 7 5 6 4 12 15 16 14 13 13 14 13 13 14 14 15 14 13 13 13 13 13 13 13 12 11 11 11 10 9 9 8 7 7
2 2 5 6 9 11 11 6 4 7 6 4 4 4 3 4 4 9 8 4 17 16 15 13 12 13 12 9 15 16 15 15 15 14 13 13 13 13 13 12 11 11 11 11 10 9 9 8 8
2 2 4 7 8 9 9 10 9 5 6 4 4 4 4 8 7 5 7 9 7 12 16 15 14 13 14 11 10 12 16 16 14 13 14 11 6 9 11 11 12 12 12 11 11 10 9 9 9
5 4 8 7 5 5 6 9 8 7 8 6 7 8 6 6 6 8 8 9 8 10 9 10 10 9 9 10 11 8 8 6 6 8 9 7 6 7 10 11 15 14 14 12 11 11 10 9 4
7 7 9 10 5 5 5 6 7 7 5 6 4 7 8 8 7 6 2 10 7 4 11 13 15 12 10 9 8 6 5 5 5 7 7 6 7 7 7 6 7 7 12 5 7 7 5 6 5
6 9 5 9 9 3 5 6 6 6 8 8 9 7 5 7 6 6 6 9 8 7 6 11 13 12 10 5 8 9 9 8 7 9 10 8 4 5 7 6 7 7 6 6 6 4 5 6 8
6 2 6 11 9 4 5 6 7 7 9 9 9 6 5 7 7 7 6 7 8 3 4 6 8 8 6 6 6 6 7 8 10 10 11 9 8 5 6 5 7 7 7 8 6 7 8 8 9
7 6 7 9 11 6 6 7 6 11 9 11 7 5 6 6 5 5 7 6 9 3 4 5 7 5 4 6 5 3 7 8 8 9 11 15 11 9 7 8 9 9 9 8 8 9 8 8 8
7 8 9 14 9 10 6 4 7 12 10 10 9 4 4 4 8 9 7 8 5 4 2 4 8 5 5 4 5 5 3 3 9 10 15 17 14 14 10 10 9 10 11 12 9 8 6 8 6
4 4 2 10 11 7 9 7 12 10 5 7 8 8 8 9 8 7 5 4 5 6 3 6 2 6 3 2 3 3 5 5 7 5 9 16 16 15 14 9 11 7 10 9 9 8 7 9 8
3 4 4 8 2 3 5 8 11 9 9 10 9 9 9 9 10 10 10 9 8 7 6 4 4 7 7 5 4 1 4 3 6 8 4 9 16 17 14 10 10 10 7 8 9 7 5 6 5
6 6 8 8 10 10 9 11 9 8 6 9 8 8 9 9 11 11 12 10 9 8 8 7 6 5 1 2 2 1 2 4 6 6 9 11 6 16 15 10 8 10 5 5 5 6 4 5 5
6 6 8 9 11 7 9 8 9 10 12 11 9 9 10 9 4 6 5 6 6 4 9 8 8 3 3 3 3 3 3 4 5 10 9 10 15 17 14 6 11 8 10 8 9 5 7 4 5
6 8 9 7 8 10 10 17 16 17 17 17 17 9 4 7 9 7 10 11 10 8 9 9 5 1 1 1 2 2 3 5 6 9 11 13 11 18 13 7 4 8 4 5 8 9 3 6 6
5 5 7 8 11 9 10 13 10 18 18 13 5 9 9 10 7 5 8 9 9 9 7 7 7 7 4 5 3 3 3 3 5 10 9 8 9 7 6 4 9 8 8 6 6 10 13 9 5
5 10 11 11 8 4 5 9 18 10 14 11 4 9 9 11 12 10 8 7 8 6 6 8 8 8 6 7 5 5 3 5 6 8 10 8 2 7 9 8 11 14 12 21 14 10 6 6 9
6 8 8 12 12 6 15 3 10 8 9 15 11 10 10 10 9 8 9 9 8 8 8 7 8 7 6 6 5 4 5 8 8 9 12 10 9 15 20 13 13 16 14 13 11 5 11 6 6
8 8 11 9 5 2 6 1 6 5 2 4 17 23 13 7 7 7 5 6 5 6 7 6 8 3 2 1 2 3 5 7 7 10 9 7 3 1 3 4 9 12 9 10 6 9 6 11 6
9 8 6 7 5 6 14 9 2 9 13 9 8 9 10 9 8 9 9 9 9 10 8 4 3 2 4 4 3 3 5 6 8 8 9 6 3 3 3 1 9 6 9 9 10 12 14 7 5
4 1 5 5 4 12 8 6 3 9 10 8 6 4 8 10 8 7 7 6 7 7 7 8 7 6 6 6 6 5 6 4 6 8 8 4 3 5 6 7 10 15 10 8 7 6 8 11 10
2 3 2 2 5 5 5 5 3 6 8 6 4 5 6 7 8 7 8 8 8 8 8 7 7 7 8 8 8 7 7 6 6 9 10 5 4 5 8 10 15 11 8 7 7 7 10 10 12
7 6 1 2 3 6 5 8 11 3 8 7 3 6 8 4 3 6 7 8 6 6 6 7 8 9 11 10 9 10 8 8 7 7 7 7 6 6 7 9 9 8 7 8 8 5 7 8 3
6 6 5 3 5 5 5 6 4 11 5 0 4 4 7 8 5 5 5 6 7 7 5 6 8 10 11 11 13 13 13 13 8 7 6 6 6 8 8 7 7 8 6 6 5 4 4 6 5
14 10 1 5 7 3 3 18 10 9 8 12 3 4 5 5 5 5 6 6 5 7 5 6 9 11 12 12 12 13 13 14 11 7 7 6 7 8 8 7 7 5 5 3 5 3 5 6 5
Wind_Direction
322 306 294 10 35 79 276 292 264 49 27 16 73 76 89 48 73 121 78 111 123 127 134 130 135 134 133 133 130 129 129 131 128 125 122 121 115 115 110 114 113 115 117 121 123 119 111 108 106
322 304 324 307 79 6 287 280 91 169 62 50 100 100 63 65 39 82 42 134 130 131 131 127 137 138 137 138 137 134 132 134 131 130 130 130 128 125 121 123 124 124 126 127 129 129 123 121 119
285 209 50 140 234 224 261 358 29 119 98 67 95 67 65 98 53 99 107 132 130 129 125 133 134 139 138 141 141 140 141 142 142 141 138 136 132 128 125 126 126 129 132 133 134 135 130 132 132
319 26 335 92 266 274 266 276 46 37 48 84 105 83 83 56 87 129 121 135 132 136 125 136 137 141 141 143 144 146 147 147 149 149 149 147 144 138 136 136 136 138 139 136 134 134 136 139 145
231 334 309 279 271 269 277 291 119 59 21 67 76 102 100 89 61 117 137 140 141 132 136 139 140 145 150 148 150 152 151 151 154 154 156 154 151 149 149 145 148 146 144 140 143 145 147 150 160
328 131 5 283 281 298 327 316 70 50 49 21 49 111 81 73 33 13 135 146 139 140 143 146 147 149 153 152 154 157 154 154 157 159 161 159 158 158 156 155 158 155 153 151 153 154 157 166 178
168 74 241 285 294 306 292 352 35 35 73 44 72 78 126 73 0 342 305 138 143 141 142 148 151 152 155 155 155 160 155 155 158 161 163 163 164 167 165 163 166 163 159 159 162 165 167 179 186
182 120 274 262 278 296 354 23 70 38 70 11 35 88 168 179 69 339 339 240 151 152 150 154 154 154 153 163 163 164 160 159 161 166 167 167 172 174 173 167 172 169 165 168 171 174 177 187 195
287 5 241 247 257 277 10 10 359 17 23 32 11 330 168 165 109 19 349 343 126 161 156 159 162 165 158 156 169 168 165 164 167 170 171 168 173 178 180 176 178 177 176 179 179 182 186 194 203
134 163 238 250 336 337 16 8 347 15 345 334 339 325 340 2 82 68 356 325 329 159 157 152 153 160 166 162 158 154 172 165 172 170 174 174 179 183 188 189 185 184 184 186 187 189 194 198 202
228 207 248 284 298 355 349 332 343 351 324 295 317 328 358 7 12 33 12 300 312 353 158 170 160 164 170 170 160 162 164 169 174 180 174 190 196 195 199 193 189 188 193 190 192 190 197 200 209
219 244 276 290 304 16 328 322 319 303 268 288 314 304 330 342 347 348 335 307 325 33 105 154 159 167 186 141 172 172 170 174 180 187 181 183 213 198 199 192 184 185 189 191 192 197 204 213 218
169 256 281 285 321 297 292 278 263 268 281 283 272 298 346 340 330 324 304 297 301 324 135 140 136 141 135 140 173 173 182 182 187 187 186 182 196 209 193 179 184 192 192 197 197 199 202 213 222
308 317 314 312 299 299 307 298 359 296 289 298 304 254 251 235 252 292 297 284 297 295 95 118 93 115 130 165 187 202 197 189 197 191 195 189 193 200 197 186 189 193 198 199 200 199 204 214 215
334 338 317 270 242 233 208 319 268 260 278 243 265 295 272 269 236 230 236 258 251 295 32 169 147 146 152 210 193 198 173 223 205 205 198 197 194 200 191 196 189 193 199 198 202 207 200 208 221
243 259 240 272 215 207 114 252 261 269 304 304 278 250 227 234 228 228 231 232 298 292 237 181 165 84 154 127 276 296 213 207 238 263 217 203 199 203 208 199 201 184 198 192 202 203 194 201 205
243 234 326 334 71 40 135 251 242 245 252 264 263 259 247 235 234 230 225 216 229 213 223 209 190 165 154 151 129 355 320 269 240 212 217 232 212 199 202 207 200 201 180 193 189 196 165 179 197
338 350 330 317 311 326 310 295 302 276 264 269 266 278 267 240 228 223 222 212 209 209 198 202 195 193 174 89 100 340 320 288 268 253 215 187 249 255 204 201 189 188 177 185 176 172 182 173 187
339 329 313 295 278 286 284 299 309 310 302 288 279 261 270 259 341 57 23 238 191 58 76 90 94 83 70 33 15 349 303 289 291 276 251 194 194 208 272 212 195 179 192 186 186 173 179 199 182
298 279 276 276 333 343 328 304 296 283 276 279 273 235 124 66 28 52 60 63 73 77 69 57 48 54 101 121 219 189 233 268 261 281 296 273 197 202 204 193 275 209 170 201 180 185 165 202 179
301 324 339 321 328 321 312 297 300 301 298 285 244 148 96 91 61 79 66 66 61 70 78 86 81 64 31 347 334 322 316 313 303 282 279 268 281 257 211 176 190 303 327 293 211 190 192 197 206
358 343 329 316 331 282 16 291 296 271 282 321 199 97 95 64 57 53 55 67 92 80 76 78 73 69 59 40 21 349 293 290 279 279 281 255 162 325 254 213 212 197 206 217 226 191 175 175 210
258 283 271 270 268 292 283 213 273 43 4 344 15 48 70 75 72 52 47 57 34 32 55 69 66 47 36 36 29 10 332 312 289 294 299 298 222 207 197 191 204 219 210 214 221 168 176 190 184
300 349 317 272 238 267 273 274 307 53 103 23 16 10 36 47 66 51 60 73 46 72 98 107 111 122 101 34 336 332 314 311 315 312 298 293 312 281 7 248 213 237 243 217 236 258 268 201 170
22 2 336 349 357 220 359 349 319 86 72 86 67 22 21 17 27 34 32 16 10 12 2 22 45 239 236 207 231 276 297 300 298 305 310 288 303 341 263 334 304 256 245 232 229 203 215 246 204
298 260 159 280 322 291 308 236 235 117 110 92 92 57 10 8 15 356 2 5 11 9 4 357 349 341 326 295 266 271 274 269 289 296 301 298 228 214 258 256 232 253 235 224 203 216 192 213 220
3 327 226 315 278 300 246 304 330 85 46 100 93 44 34 347 335 2 5 9 2 355 350 350 347 330 316 297 277 257 262 268 280 290 289 280 256 222 249 240 252 241 233 237 218 211 213 189 219
178 225 43 343 315 280 278 312 253 158 19 99 64 13 313 318 350 358 357 353 348 344 324 356 12 3 346 336 340 326 282 260 258 270 287 289 282 258 245 234 239 242 234 237 231 214 218 207 212
332 323 303 175 175 212 304 254 308 336 42 146 187 224 279 290 355 341 332 332 323 315 344 13 360 351 342 337 334 331 325 301 273 261 270 288 291 279 253 256 251 241 236 239 249 250 189 124 123
250 252 101 99 296 262 258 273 282 271 313 311 195 302 300 327 310 331 320 294 306 298 15 5 353 342 329 322 318 313 307 311 278 261 267 282 287 282 272 244 256 265 270 239 211 147 100 103 123